Location: Newark
(48.5797°N, 7.6903°E)
Time: 18:46:41
(UTC+00:00)

N. Korean satellite - Visible Passes

Search period start: 29 January 2020 00:00
Search period end: 08 February 2020 00:00
Orbit: 454 x 507 km, 97.2° (Epoch: 29 January)

Date Brightness Start Highest point End Pass type
(mag) Time Alt. Az. Time Alt. Az. Time Alt. Az.
29 Jan 6.4 05:34:56 10° N 05:38:33 74° WNW 05:42:10 10° SSW visible
30 Jan 7.4 05:09:28 10° NNE 05:13:01 54° E 05:16:36 10° S visible
30 Jan 9.7 17:23:01 10° SW 17:25:22 17° W 17:27:45 10° NW visible
31 Jan 8.8 04:44:16 10° NE 04:47:25 27° E 04:50:35 10° SSE visible
31 Jan 7.6 06:17:44 10° NNW 06:20:44 25° WNW 06:23:44 10° WSW visible
31 Jan 8.6 16:56:33 10° SSW 16:59:41 33° W 17:02:52 10° NNW visible
01 Feb 9.8 04:19:34 10° NE 04:21:44 15° E 04:23:53 10° SE visible
01 Feb 6.8 05:51:52 10° N 05:55:21 46° WNW 05:58:52 10° SW visible
02 Feb 6.6 05:26:15 10° NNE 05:29:54 87° ESE 05:33:34 10° SSW visible
02 Feb 10.2 17:41:14 10° WSW 17:42:22 11° W 17:43:30 10° WNW visible
03 Feb 7.9 05:00:51 10° NNE 05:04:21 43° E 05:07:52 10° S visible
03 Feb 9.5 17:13:54 10° SW 17:16:37 21° W 17:19:22 10° NW visible
04 Feb 9.2 04:35:45 10° NE 04:38:42 23° E 04:41:40 10° SSE visible
04 Feb 7.4 06:08:53 10° N 06:12:07 30° WNW 06:15:22 10° SW visible
05 Feb 10.1 04:11:24 10° ENE 04:12:59 12° E 04:14:33 10° ESE visible
05 Feb 6.6 05:43:06 10° N 05:46:43 58° WNW 05:50:20 10° SSW visible
06 Feb 6.9 05:17:32 10° NNE 05:21:13 70° ESE 05:24:54 10° S visible
06 Feb 9.9 17:31:38 10° SW 17:33:34 14° W 17:35:32 10° NW visible
07 Feb 8.4 04:52:14 10° NNE 04:55:38 34° E 04:59:03 10° SSE visible
07 Feb 9.1 17:04:51 10° SSW 17:07:50 27° W 17:10:53 10° NW visible
